GW3806 Weather Reports


Display with metric or nautical units.
time (UTC)temp
F
wind
direction
speed
MPH
gust
MPH
rain 1hr
in
rain 24hr
in
rain mn
in
humidity
%
barometer
mb
20260503025301 49 117 3.0 10.0 0.00 0.00 0.00 52 1016.5
20260503024758 48 100 5.0 7.0 0.00 0.00 0.00 54 1016.5
20260503024255 49 0 0.0 3.0 0.00 0.00 0.00 52 1016.6
20260503023752 49 78 0.0 3.0 0.00 0.00 0.00 52 1016.4
20260503023249 50 83 1.0 2.0 0.00 0.00 0.00 50 1016.2
20260503022744 50 87 3.0 4.0 0.00 0.00 0.00 50 1016.5
20260503022239 51 94 5.0 5.0 0.00 0.00 0.00 50 1016.5
20260503021736 53 96 3.0 3.0 0.00 0.00 0.00 45 1016.5
20260503021232 54 98 2.0 3.0 0.00 0.00 0.00 44 1016.5
20260503020730 54 132 2.0 2.0 0.00 0.00 0.00 44 1016.5
20260503020228 55 346 0.0 1.0 0.00 0.00 0.00 43 1016.6
20260503015724 55 303 0.0 0.0 0.00 0.00 0.00 42 1016.5
20260503015221 56 8 0.0 0.0 0.00 0.00 0.00 41 1016.5
20260503014717 57 283 0.0 4.0 0.00 0.00 0.00 41 1016.5
20260503014215 57 0 1.0 3.0 0.00 0.00 0.00 39 1016.4
20260503013712 58 278 1.0 4.0 0.00 0.00 0.00 39 1016.4
20260503013210 58 255 2.0 5.0 0.00 0.00 0.00 39 1016.5
20260503012707 59 277 0.0 4.0 0.00 0.00 0.00 38 1016.6
20260503012204 59 254 0.0 6.0 0.00 0.00 0.00 38 1016.5
20260503011700 59 270 1.0 5.0 0.00 0.00 0.00 38 1016.5
20260503011157 59 330 3.0 6.0 0.00 0.00 0.00 37 1016.6
20260503010653 59 266 5.0 8.0 0.00 0.00 0.00 36 1016.5
20260503010151 60 291 4.0 9.0 0.00 0.00 0.00 37 1016.6
20260503005648 60 286 5.0 11.0 0.00 0.00 0.00 35 1016.6
20260503005145 61 301 7.0 12.0 0.00 0.00 0.00 34 1016.5
20260503004641 62 274 11.0 16.0 0.00 0.00 0.00 36 1016.6
20260503004140 62 255 6.0 11.0 0.00 0.00 0.00 36 1016.6
20260503003636 61 276 9.0 9.0 0.00 0.00 0.00 34 1016.6
20260503003133 60 307 5.0 10.0 0.00 0.00 0.00 38 1016.6
20260503002630 60 303 3.0 6.0 0.00 0.00 0.00 37 1016.6
20260503002127 61 243 3.0 10.0 0.00 0.00 0.00 39 1016.6
20260503001623 61 292 9.0 12.0 0.00 0.00 0.00 37 1016.6
20260503001120 62 292 4.0 6.0 0.00 0.00 0.00 37 1016.6
20260503000618 63 240 3.0 7.0 0.00 0.00 0.00 37 1016.6
20260503000115 64 255 3.0 7.0 0.00 0.00 0.00 34 1016.5
20260502235611 64 242 3.0 10.0 0.00 0.00 0.00 35 1016.6
20260502235109 64 317 5.0 8.0 0.00 0.00 0.00 34 1016.5
20260502234605 64 5 8.0 11.0 0.00 0.00 0.00 32 1016.6
20260502234103 65 348 1.0 7.0 0.00 0.00 0.00 35 1016.6
20260502233603 64 280 8.0 12.0 0.00 0.00 0.00 33 1016.5
20260502233100 63 355 3.0 7.0 0.00 0.00 0.00 34 1016.5
20260502232556 61 270 0.0 7.0 0.00 0.00 0.00 37 1016.7
20260502232054 61 276 2.0 7.0 0.00 0.00 0.00 37 1016.6
20260502231550 61 311 4.0 9.0 0.00 0.00 0.00 39 1016.7
20260502231048 64 282 3.0 9.0 0.00 0.00 0.00 38 1016.7
20260502230546 64 274 4.0 11.0 0.00 0.00 0.00 38 1016.8
20260502230045 61 281 4.0 7.0 0.00 0.00 0.00 39 1016.8
20260502225540 64 278 6.0 10.0 0.00 0.00 0.00 35 1016.8
20260502225037 66 230 4.0 9.0 0.00 0.00 0.00 32 1017.0
20260502224533 66 308 5.0 15.0 0.00 0.00 0.00 34 1016.8
20260502224030 65 338 6.0 7.0 0.00 0.00 0.00 34 1017.0
20260502223528 63 232 2.0 7.0 0.00 0.00 0.00 37 1017.0
20260502223026 66 285 6.0 8.0 0.00 0.00 0.00 34 1017.1
20260502222523 64 298 5.0 11.0 0.00 0.00 0.00 33 1017.0
20260502222020 65 205 7.0 9.0 0.00 0.00 0.00 33 1017.1
20260502221515 64 262 4.0 8.0 0.00 0.00 0.00 34 1017.0
20260502221013 62 213 3.0 9.0 0.00 0.00 0.00 36 1017.2
20260502220508 62 231 3.0 9.0 0.00 0.00 0.00 35 1017.4
20260502220005 63 211 6.0 10.0 0.00 0.00 0.00 36 1017.4
20260502215503 64 285 5.0 11.0 0.00 0.00 0.00 36 1017.6
20260502214959 63 300 1.0 2.0 0.00 0.00 0.00 36 1017.8
20260502214456 61 185 1.0 5.0 0.00 0.00 0.00 35 1017.7
20260502213954 61 27 3.0 4.0 0.00 0.00 0.00 38 1017.7
20260502213450 60 337 4.0 7.0 0.00 0.00 0.00 34 1017.8
20260502212948 63 260 4.0 7.0 0.00 0.00 0.00 35 1017.8
20260502212447 63 339 2.0 2.0 0.00 0.00 0.00 33 1018.1
20260502211944 61 293 4.0 7.0 0.00 0.00 0.00 35 1018.1
20260502211439 63 221 2.0 7.0 0.00 0.00 0.00 31 1018.1
20260502210937 65 180 0.0 7.0 0.00 0.00 0.00 36 1017.9
20260502210434 62 255 4.0 9.0 0.00 0.00 0.00 37 1018.2
20260502205931 61 247 9.0 9.0 0.00 0.00 0.00 36 1018.2
20260502205427 63 300 5.0 9.0 0.00 0.00 0.00 39 1018.1
20260502204925 62 307 0.0 3.0 0.00 0.00 0.00 35 1018.1
20260502204421 61 292 3.0 7.0 0.00 0.00 0.00 36 1018.2
20260502203919 60 286 5.0 7.0 0.00 0.00 0.00 33 1018.3
20260502203416 60 248 5.0 12.0 0.00 0.00 0.00 34 1018.4
20260502202912 62 291 5.0 8.0 0.00 0.00 0.00 33 1018.4
20260502202409 62 264 3.0 8.0 0.00 0.00 0.00 34 1018.4
20260502201908 63 290 6.0 6.0 0.00 0.00 0.00 37 1018.7
20260502201403 63 283 0.0 2.0 0.00 0.00 0.00 33 1018.5
20260502200900 63 254 2.0 5.0 0.00 0.00 0.00 34 1018.4
20260502200355 62 270 2.0 8.0 0.00 0.00 0.00 32 1018.4
20260502195854 63 171 6.0 11.0 0.00 0.00 0.00 36 1018.5
20260502195350 64 239 7.0 13.0 0.00 0.00 0.00 32 1018.7
20260502194847 63 284 4.0 5.0 0.00 0.00 0.00 34 1018.5
20260502194344 62 352 0.0 2.0 0.00 0.00 0.00 32 1018.8
20260502193839 62 216 5.0 10.0 0.00 0.00 0.00 36 1018.9
20260502193337 62 255 5.0 11.0 0.00 0.00 0.00 33 1018.8
20260502192832 62 270 4.0 10.0 0.00 0.00 0.00 34 1018.9
20260502192329 62 214 6.0 10.0 0.00 0.00 0.00 32 1018.9
20260502191827 63 0 0.0 9.0 0.00 0.00 0.00 30 1019.0
20260502191325 62 207 3.0 13.0 0.00 0.00 0.00 35 1018.8
20260502190822 60 233 3.0 8.0 0.00 0.00 0.00 33 1018.9
20260502190319 62 286 5.0 5.0 0.00 0.00 0.00 32 1019.1
20260502185814 62 255 3.0 8.0 0.00 0.00 0.00 33 1019.1
20260502185310 60 248 2.0 8.0 0.00 0.00 0.00 29 1019.1
20260502184808 62 244 15.0 16.0 0.00 0.00 0.00 31 1019.0
20260502184303 62 266 5.0 16.0 0.00 0.00 0.00 33 1019.0
20260502183800 63 277 4.0 9.0 0.00 0.00 0.00 34 1019.1
20260502183256 62 239 3.0 16.0 0.00 0.00 0.00 33 1019.1
20260502182751 62 218 6.0 12.0 0.00 0.00 0.00 35 1019.3
20260502182247 61 254 7.0 10.0 0.00 0.00 0.00 31 1019.3
20260502181743 61 230 5.0 18.0 0.00 0.00 0.00 33 1019.3
20260502181237 61 261 4.0 16.0 0.00 0.00 0.00 31 1019.4
20260502180734 60 221 4.0 12.0 0.00 0.00 0.00 31 1019.4
20260502180231 62 249 4.0 15.0 0.00 0.00 0.00 35 1019.4
20260502170150 61 81 4.0 6.0 0.00 0.00 0.00 36 1019.5
20260502164137 61 216 5.0 5.0 0.00 0.00 0.00 37 1019.9
20260502163632 60 220 3.0 8.0 0.00 0.00 0.00 39 1019.6
20260502163129 60 180 2.0 5.0 0.00 0.00 0.00 37 1019.8
20260502162626 60 258 2.0 5.0 0.00 0.00 0.00 38 1019.9
20260502162123 58 216 4.0 7.0 0.00 0.00 0.00 36 1019.8
20260502161620 60 176 2.0 6.0 0.00 0.00 0.00 36 1019.6
20260502161118 58 250 3.0 5.0 0.00 0.00 0.00 36 1019.8
20260502160615 57 247 3.0 7.0 0.00 0.00 0.00 35 1019.6
20260502160113 57 251 2.0 5.0 0.00 0.00 0.00 34 1019.6
20260502152028 57 143 3.0 4.0 0.00 0.00 0.00 39 1019.4
20260502151524 57 225 0.0 3.0 0.00 0.00 0.00 40 1019.6
20260502151022 57 324 2.0 4.0 0.00 0.00 0.00 40 1019.5
20260502150520 58 243 2.0 2.0 0.00 0.00 0.00 40 1019.5
20260502130404 40 96 7.0 17.0 0.00 0.00 0.00 55 1018.7
20260502123347 39 90 0.0 12.0 0.00 0.00 0.00 55 1018.8
20260502122844 39 107 0.0 10.0 0.00 0.00 0.00 56 1018.5
20260502122339 37 96 6.0 14.0 0.00 0.00 0.00 60 1018.7
20260502121838 38 75 7.0 17.0 0.00 0.00 0.00 58 1018.8
20260502121335 39 78 6.0 14.0 0.00 0.00 0.00 56 1019.0
20260502120832 37 79 7.0 12.0 0.00 0.00 0.00 59 1018.8
20260502120328 39 86 5.0 13.0 0.00 0.00 0.00 55 1018.8
20260502115826 37 118 9.0 13.0 0.00 0.00 0.00 59 1018.9
20260502115323 39 101 7.0 11.0 0.00 0.00 0.00 56 1018.7
20260502114819 39 132 4.0 14.0 0.00 0.00 0.00 56 1018.8
20260502114316 37 94 5.0 13.0 0.00 0.00 0.00 60 1018.8
20260502113813 37 90 6.0 11.0 0.00 0.00 0.00 60 1018.9
20260502113311 37 99 8.0 16.0 0.00 0.00 0.00 59 1019.0
20260502112809 37 104 5.0 10.0 0.00 0.00 0.00 59 1018.8
20260502112306 38 84 8.0 15.0 0.00 0.00 0.00 59 1019.0
20260502111803 38 83 8.0 16.0 0.00 0.00 0.00 59 1019.0
20260502111301 38 86 8.0 16.0 0.00 0.00 0.00 60 1019.0
20260502110758 38 102 6.0 13.0 0.00 0.00 0.00 59 1019.0
20260502110256 37 100 9.0 13.0 0.00 0.00 0.00 61 1019.0
20260502105754 37 110 9.0 15.0 0.00 0.00 0.00 61 1019.1
20260502105249 37 119 9.0 13.0 0.00 0.00 0.00 60 1019.0
20260502104748 37 115 5.0 12.0 0.00 0.00 0.00 62 1019.1
20260502104245 36 116 12.0 12.0 0.00 0.00 0.00 63 1019.3
20260502103742 38 96 4.0 11.0 0.00 0.00 0.00 60 1019.0
20260502103240 39 109 5.0 12.0 0.00 0.00 0.00 56 1019.0
20260502102736 39 0 3.0 9.0 0.00 0.00 0.00 56 1018.9
20260502102233 39 111 3.0 9.0 0.00 0.00 0.00 58 1019.0
20260502101731 39 46 6.0 13.0 0.00 0.00 0.00 57 1018.9
20260502101229 39 79 5.0 11.0 0.00 0.00 0.00 57 1019.0
20260502100727 39 81 4.0 9.0 0.00 0.00 0.00 57 1019.0
20260502100225 39 98 5.0 13.0 0.00 0.00 0.00 59 1019.0
20260502091159 39 143 4.0 7.0 0.00 0.00 0.00 57 1019.1
20260502090656 40 94 5.0 8.0 0.00 0.00 0.00 56 1019.3
20260502090153 40 109 4.0 9.0 0.00 0.00 0.00 57 1019.0
20260502071049 41 23 4.0 13.0 0.00 0.00 0.00 57 1019.4
20260502070547 41 93 4.0 12.0 0.00 0.00 0.00 57 1019.4
20260502070045 40 102 2.0 7.0 0.00 0.00 0.00 58 1019.4
20260502065544 40 90 5.0 11.0 0.00 0.00 0.00 58 1019.6
20260502065040 40 36 4.0 12.0 0.00 0.00 0.00 58 1019.4
20260502064539 40 90 3.0 11.0 0.00 0.00 0.00 58 1019.5
20260502064035 41 109 5.0 11.0 0.00 0.00 0.00 57 1019.6
20260502063533 41 78 9.0 19.0 0.00 0.00 0.00 57 1019.5
20260502063031 41 98 9.0 10.0 0.00 0.00 0.00 56 1019.3
20260502062527 41 3 5.0 12.0 0.00 0.00 0.00 56 1019.5
20260502062026 41 93 7.0 14.0 0.00 0.00 0.00 58 1019.5
20260502061523 41 77 7.0 12.0 0.00 0.00 0.00 58 1019.3
20260502061015 41 98 7.0 11.0 0.00 0.00 0.00 58 1019.4
20260502060510 40 67 3.0 11.0 0.00 0.00 0.00 59 1019.5
20260502060007 41 90 5.0 9.0 0.00 0.00 0.00 58 1019.3
20260502055504 41 85 8.0 17.0 0.00 0.00 0.00 58 1019.3
20260502055004 41 71 7.0 12.0 0.00 0.00 0.00 57 1019.3
20260502054502 41 75 6.0 9.0 0.00 0.00 0.00 57 1019.4
20260502053958 41 83 3.0 8.0 0.00 0.00 0.00 57 1019.4
20260502053455 42 68 4.0 9.0 0.00 0.00 0.00 56 1019.5
20260502052953 42 64 4.0 11.0 0.00 0.00 0.00 56 1019.3
20260502052451 42 70 5.0 9.0 0.00 0.00 0.00 56 1019.3
20260502051949 42 97 5.0 10.0 0.00 0.00 0.00 55 1019.3
20260502051447 42 11 2.0 11.0 0.00 0.00 0.00 56 1019.3
20260502050944 42 77 3.0 9.0 0.00 0.00 0.00 56 1019.3
20260502050440 42 108 7.0 10.0 0.00 0.00 0.00 56 1019.4
20260502045938 42 346 1.0 11.0 0.00 0.00 0.00 56 1019.6
20260502045434 42 63 6.0 13.0 0.00 0.00 0.00 57 1019.6
20260502044931 42 57 3.0 12.0 0.00 0.00 0.00 57 1019.5
20260502044427 43 95 4.0 13.0 0.00 0.00 0.00 56 1019.6
20260502043924 42 82 2.0 10.0 0.00 0.00 0.00 56 1019.6
20260502043422 42 80 2.0 12.0 0.00 0.00 0.00 57 1019.5
20260502042921 42 72 5.0 10.0 0.00 0.00 0.00 57 1019.8
20260502042419 42 60 6.0 7.0 0.00 0.00 0.00 57 1019.8
20260502041915 43 90 6.0 11.0 0.00 0.00 0.00 57 1019.5
20260502041414 43 90 1.0 10.0 0.00 0.00 0.00 56 1019.6
20260502040910 43 109 3.0 7.0 0.00 0.00 0.00 56 1019.6
20260502040407 44 84 9.0 11.0 0.00 0.00 0.00 55 1019.4
20260502035903 44 85 6.0 12.0 0.00 0.00 0.00 55 1019.4
20260502035400 44 0 0.0 8.0 0.00 0.00 0.00 53 1019.4
20260502034857 44 80 5.0 5.0 0.00 0.00 0.00 55 1019.5
20260502034356 44 23 1.0 10.0 0.00 0.00 0.00 55 1019.4
20260502033854 44 100 4.0 13.0 0.00 0.00 0.00 56 1019.3
20260502033351 45 79 6.0 7.0 0.00 0.00 0.00 55 1019.4
20260502032847 45 112 3.0 11.0 0.00 0.00 0.00 53 1019.4
20260502032344 45 110 4.0 9.0 0.00 0.00 0.00 55 1019.3
20260502031841 45 58 3.0 12.0 0.00 0.00 0.00 55 1019.0
20260502031340 45 83 5.0 11.0 0.00 0.00 0.00 55 1019.0
20260502030838 46 64 3.0 13.0 0.00 0.00 0.00 55 1018.9
20260502030336 46 84 6.0 9.0 0.00 0.00 0.00 55 1019.0
20260502025832 46 84 8.0 11.0 0.00 0.00 0.00 55 1018.9